Temperature
23 23 23 23 23 23 23 23 23 22 22 22 22 22 22 21 20 21 20 20 20 19 18 18 17 17 17 17 17 17 17 16 16 16 16 16 16 16 16 16 15 15 15 15
24 23 23 23 23 23 23 23 22 22 22 22 22 22 22 21 21 20 20 20 20 19 19 18 17 17 17 17 17 17 17 16 16 16 16 16 16 16 16 16 16 15 15 15
23 23 22 22 22 23 23 23 22 22 22 22 22 22 22 22 21 20 20 20 20 19 19 18 18 17 17 17 17 17 17 16 16 16 16 16 16 16 16 16 15 15 15 15
23 23 22 23 23 23 22 23 22 22 22 22 22 22 23 23 22 21 20 20 19 19 18 18 17 17 17 17 17 17 17 17 16 16 16 16 16 16 15 15 15 15 15 15
23 22 23 22 22 22 22 22 22 22 22 22 22 22 23 23 22 22 21 20 19 19 18 18 17 17 17 17 17 17 17 17 16 16 16 16 16 15 15 15 15 15 15 15
23 22 23 22 22 22 22 22 22 22 22 22 23 22 23 22 22 22 22 20 20 19 18 18 17 17 17 17 17 16 17 16 16 16 16 15 15 15 15 15 15 15 15 15
23 23 22 22 22 22 22 23 22 22 22 22 22 22 22 23 22 22 21 20 19 19 18 18 17 17 17 17 17 16 16 16 16 16 16 15 15 15 15 15 15 15 15 15
23 23 23 23 23 23 23 23 22 22 22 23 22 22 23 22 21 21 20 20 19 19 18 18 17 17 17 17 16 16 16 16 16 16 16 15 15 15 15 15 15 14 14 14
23 23 22 22 22 23 23 23 23 23 23 22 23 23 23 22 21 21 20 19 19 19 18 17 17 17 16 16 16 16 16 16 16 16 16 15 15 15 15 15 15 14 14 14
23 23 22 22 22 22 23 23 22 22 22 22 22 23 23 22 21 21 20 20 19 18 18 17 17 16 16 16 16 16 16 16 16 16 15 15 15 15 15 15 14 14 14 14
23 23 22 22 22 22 22 22 22 22 22 22 22 23 23 22 22 21 21 19 19 18 18 17 16 16 16 16 16 16 16 15 15 15 15 15 15 15 15 14 14 14 14 14
22 23 23 22 22 21 22 22 22 22 22 21 22 22 22 22 21 21 20 19 18 18 17 17 16 16 16 16 16 16 15 15 15 15 15 15 15 15 14 14 14 14 14 13
21 22 22 22 22 21 21 21 21 22 22 22 21 22 22 22 21 20 19 19 18 17 17 16 16 16 16 15 15 16 15 15 15 15 15 15 14 14 14 14 14 13 13 13
21 22 22 22 22 22 21 21 21 21 21 22 22 22 22 22 21 20 19 18 18 17 17 16 16 15 15 15 15 15 15 15 15 15 15 14 14 14 14 13 13 13 13 13
21 22 22 22 21 21 21 21 21 21 21 21 22 21 22 22 21 20 19 18 17 17 16 16 15 15 15 15 15 15 15 15 14 14 14 14 14 14 14 13 13 13 13 13
21 21 21 21 21 20 20 21 21 20 21 21 21 21 22 21 20 19 19 18 17 17 16 16 16 15 15 15 15 15 15 14 14 14 14 14 14 14 13 13 13 13 13 13
21 21 21 21 21 20 20 21 21 20 21 21 21 21 21 20 19 19 18 17 17 16 16 16 16 15 15 15 15 14 14 14 14 14 14 14 13 13 13 13 13 13 13 13
20 20 20 20 20 19 21 20 20 20 20 20 20 20 20 19 18 17 17 17 16 16 16 16 16 15 15 15 15 14 14 14 14 14 13 13 13 13 13 13 13 13 12 12
19 20 20 20 20 20 20 20 19 19 20 20 20 19 18 17 18 18 16 16 16 15 15 15 15 15 15 15 14 14 14 14 13 13 13 13 13 13 13 13 13 12 12 12
18 19 20 19 19 19 20 19 18 19 20 19 19 19 18 18 19 19 16 15 15 15 15 15 15 15 14 14 14 14 13 13 13 13 13 13 12 12 12 12 12 12 12 12
18 18 18 19 19 20 19 18 18 19 20 18 18 17 17 17 18 16 15 15 14 14 14 14 14 14 14 14 14 13 13 13 13 13 12 12 12 12 12 12 12 12 12 12
19 18 18 19 18 19 17 17 18 19 18 17 17 17 16 16 15 15 14 14 14 14 14 14 14 14 14 14 13 13 13 13 12 12 12 12 12 12 12 11 11 11 11 11
18 18 19 19 18 17 16 16 16 16 17 16 16 15 15 15 14 14 14 14 14 13 13 13 13 13 13 13 13 13 13 12 12 12 12 12 11 11 11 11 11 11 11 11
17 16 17 17 17 16 15 15 15 15 15 15 14 14 14 14 14 13 13 13 13 13 13 13 13 13 13 13 13 12 12 12 11 11 11 11 11 11 11 10 10 10 10 10
16 16 16 16 17 16 15 14 14 14 14 14 13 13 13 13 13 13 13 13 13 13 13 13 12 12 12 12 12 12 11 11 11 11 11 10 10 10 10 10 10 10 10 10
15 15 16 16 16 16 15 14 13 13 13 13 13 13 13 13 12 12 12 12 12 12 12 12 12 12 12 11 11 11 11 11 11 10 10 10 10 10 10 10 10 10 10 10
Wind_Speed
2 4 4 3 1 2 4 4 3 2 2 2 3 3 4 5 5 5 5 5 5 6 5 5 4 4 4 4 4 4 5 4 4 3 2 2 2 2 2 2 2 2 2 2
5 3 2 2 3 4 4 4 3 2 2 2 2 3 4 5 5 5 5 5 6 6 6 6 5 5 4 4 4 4 4 4 4 2 2 2 2 1 2 2 2 2 2 2
3 2 4 5 4 4 3 3 3 2 2 3 3 4 5 6 5 5 5 5 5 6 6 7 6 5 5 4 4 4 4 4 4 4 3 3 3 2 2 2 2 2 2 2
3 3 4 4 3 3 3 2 3 4 4 2 3 2 4 5 6 5 5 5 5 6 6 6 6 6 5 4 4 4 5 4 4 4 4 4 3 3 2 2 2 3 3 3
3 3 3 3 2 2 0 2 3 4 4 3 3 4 1 3 4 5 6 6 6 6 7 6 6 6 5 4 4 4 4 4 4 4 4 3 2 2 2 2 3 3 3 2
2 2 1 1 1 2 4 4 4 4 5 4 3 4 1 2 3 3 4 5 6 6 7 6 5 5 5 5 4 4 4 4 4 4 4 3 3 3 3 3 3 2 2 2
4 4 3 3 4 4 4 4 3 4 4 2 1 4 1 1 1 2 3 4 5 6 7 7 6 6 5 5 5 6 5 5 5 4 4 4 4 3 3 3 3 2 2 2
3 4 4 3 3 3 4 4 3 2 2 1 3 3 0 2 1 1 2 3 4 5 6 7 7 6 6 5 5 6 6 5 5 5 4 4 4 3 2 2 2 2 2 2
2 2 3 1 1 3 3 3 3 4 3 4 2 2 1 1 1 1 2 3 4 5 5 6 6 6 6 6 5 6 6 6 6 5 5 4 4 3 3 3 3 2 2 2
2 2 3 3 3 1 2 2 3 4 3 3 3 3 1 1 1 1 2 3 3 4 5 5 6 6 6 6 5 6 6 6 6 5 5 4 4 4 3 3 3 3 3 3
3 3 3 4 4 3 4 4 3 3 4 4 3 0 2 1 0 1 2 3 3 4 4 4 4 5 5 5 5 5 6 6 5 5 5 5 5 4 4 4 4 3 3 4
2 3 3 3 2 1 3 4 5 5 4 4 5 1 3 0 1 1 2 2 3 3 4 4 4 4 4 5 5 5 5 6 5 5 5 5 4 5 5 4 4 4 4 4
2 3 3 4 4 4 4 4 5 5 5 6 6 2 3 0 1 1 2 2 2 3 3 4 4 4 4 4 5 5 5 5 5 5 5 5 5 5 5 5 4 4 4 4
3 4 5 5 3 1 4 5 7 7 7 7 7 7 4 3 3 3 2 2 2 2 3 3 4 4 4 4 5 5 5 5 5 5 5 5 5 5 5 4 4 4 4 4
3 6 6 6 5 5 6 8 8 10 10 9 8 8 8 6 5 3 2 2 2 3 3 3 3 4 4 5 5 5 5 5 5 5 5 5 4 4 5 5 5 5 5 5
3 5 6 7 5 6 9 9 10 10 10 11 11 10 6 4 3 3 2 3 3 3 3 3 4 4 4 5 5 5 5 5 5 5 5 4 4 4 4 5 5 5 5 5
4 5 7 7 5 6 9 7 8 8 8 8 9 7 3 4 3 3 2 3 3 3 4 4 4 4 4 4 5 5 5 5 5 5 5 5 5 5 5 5 5 5 5 5
6 7 6 6 6 8 2 1 3 6 6 6 7 5 4 4 3 2 2 2 2 2 3 4 4 4 4 4 4 4 5 5 5 5 5 5 6 6 5 5 5 6 5 5
6 6 5 6 7 8 4 3 3 5 6 5 6 5 3 2 2 2 1 2 3 3 3 3 4 4 4 4 4 5 5 5 5 5 5 5 6 6 6 6 6 6 6 6
4 6 7 7 7 7 2 1 1 4 6 0 2 3 2 3 5 2 2 2 3 3 3 3 3 3 4 4 4 5 5 5 6 6 6 6 6 6 6 7 7 6 6 6
5 6 9 10 10 7 1 1 3 5 2 2 1 2 2 4 4 3 2 3 3 3 3 3 3 3 4 4 5 6 6 7 6 6 6 6 7 7 6 6 6 6 6 6
7 6 8 7 9 6 2 2 3 4 3 1 2 2 3 3 4 3 4 4 4 4 3 3 3 4 4 4 5 6 7 6 6 5 6 6 7 6 6 6 6 6 6 6
7 6 5 5 4 2 0 2 4 5 4 4 4 4 3 4 5 5 5 5 4 4 4 4 4 4 4 5 6 7 6 5 5 6 6 6 6 6 6 6 6 6 6 5
5 4 6 7 7 5 4 4 4 5 5 5 5 4 5 6 6 6 5 5 5 5 4 4 4 5 5 5 6 7 6 5 6 6 6 6 6 6 6 5 5 6 6 6
6 5 7 9 7 6 5 5 5 5 5 5 5 6 6 6 7 6 6 6 5 5 5 5 5 5 6 5 6 6 5 5 6 6 6 6 6 6 6 6 5 6 6 6
7 8 8 8 6 7 7 6 6 6 6 6 6 7 6 6 6 6 6 6 5 5 5 5 5 6 6 6 6 6 6 6 6 6 6 5 5 5 5 5 5 4 6 4
Wind_Direction
153 162 155 154 183 185 171 175 170 139 146 200 205 196 190 186 196 200 192 191 180 174 173 169 166 163 161 162 160 152 156 156 159 157 161 161 154 150 129 120 120 137 145 135
159 150 150 144 152 167 176 176 167 139 141 209 208 226 200 192 204 212 213 203 188 182 178 171 176 171 176 172 170 164 164 166 169 172 179 171 161 154 125 123 129 152 157 146
161 122 147 162 167 179 194 209 199 192 178 195 229 218 199 191 203 207 219 217 201 196 193 180 181 179 182 184 182 177 176 173 170 170 168 159 153 158 156 141 128 131 139 140
130 136 164 182 190 220 207 206 203 196 217 209 241 259 195 194 198 203 207 206 202 199 198 188 186 186 186 185 184 183 181 178 173 171 180 182 184 172 162 143 136 137 134 138
134 161 182 201 220 237 170 148 193 213 237 241 225 257 191 181 216 216 211 209 205 198 195 191 192 191 186 180 182 187 178 177 175 175 178 195 181 159 146 145 150 149 136 138
135 154 233 161 124 177 159 171 182 211 237 242 234 245 242 189 248 234 206 206 203 198 193 194 189 186 185 177 179 183 182 175 170 174 179 190 179 177 168 165 164 167 153 149
156 150 155 172 163 168 212 230 223 211 215 225 174 244 271 43 323 258 213 199 196 191 191 192 190 191 189 185 184 186 187 183 178 178 185 190 190 190 191 185 178 186 170 167
192 165 165 193 226 218 220 256 280 288 275 256 207 243 92 58 343 270 200 187 180 182 190 194 196 197 195 192 192 193 191 187 183 186 185 190 192 194 196 196 191 192 185 169
215 152 129 157 238 242 221 232 296 283 278 266 221 206 196 118 176 174 170 176 184 189 192 196 197 199 198 196 196 198 192 190 189 192 191 191 194 194 193 194 192 193 189 172
267 212 158 162 180 136 278 228 228 250 273 268 239 235 257 129 156 171 185 195 201 198 196 196 198 200 199 197 197 197 194 193 190 193 194 191 196 194 196 195 193 190 186 177
243 229 180 185 215 221 189 205 236 247 268 281 283 160 50 20 25 218 205 201 205 205 200 198 200 198 193 191 192 195 194 192 191 193 192 190 192 191 192 196 194 194 193 189
226 256 233 199 148 287 242 242 237 253 250 252 276 282 92 51 325 266 235 204 204 207 200 195 191 188 189 191 192 192 194 190 189 190 190 194 190 192 198 198 199 198 193 191
183 242 242 196 183 187 213 223 233 252 263 251 255 238 106 89 313 298 266 240 212 203 199 185 184 191 192 193 193 191 192 192 186 185 190 194 197 199 203 204 200 202 198 196
222 247 261 277 321 261 235 224 223 234 250 255 252 268 274 295 308 309 280 249 228 205 192 185 189 197 199 197 194 192 190 190 187 183 191 201 204 204 206 208 204 206 204 202
237 254 257 272 284 271 265 254 236 238 251 262 270 275 282 292 294 288 253 226 216 204 193 192 196 199 198 198 197 194 193 191 190 189 195 204 204 204 207 205 205 206 207 212
239 254 257 257 256 259 263 260 246 243 249 253 263 272 284 291 281 261 234 219 221 214 207 203 201 200 204 203 202 198 198 197 194 196 200 201 201 200 205 206 205 206 206 214
222 242 254 261 258 266 259 253 240 233 235 247 257 271 283 284 282 266 250 233 234 235 228 219 212 207 211 211 207 204 203 196 198 203 204 201 201 200 206 203 204 209 210 212
235 238 250 265 259 254 268 89 240 240 251 249 259 280 289 293 297 278 255 247 253 257 249 238 229 216 215 211 205 204 202 201 205 211 212 206 205 205 206 207 210 215 219 215
237 230 238 250 259 266 260 234 230 244 257 253 255 266 276 286 258 233 247 271 278 274 267 251 238 223 212 208 203 200 203 206 211 219 222 214 211 210 212 216 219 222 223 224
204 228 238 241 255 263 272 130 229 254 253 266 264 265 259 241 261 283 343 312 300 293 277 259 239 227 221 214 205 205 212 216 223 227 232 226 219 215 218 225 227 224 225 230
196 214 232 244 253 262 317 127 199 237 300 58 313 283 244 256 300 336 326 310 301 289 279 262 242 232 228 219 210 216 222 227 232 232 236 232 224 223 224 230 231 229 230 233
232 229 232 239 246 253 90 170 228 303 351 309 301 291 277 292 312 310 300 297 295 286 275 260 246 242 235 223 219 228 235 237 234 229 232 231 227 225 225 227 234 235 231 232
232 242 249 236 256 353 171 267 307 320 304 303 301 301 294 291 293 294 291 292 293 287 275 261 251 248 241 230 227 233 239 239 234 229 233 234 230 224 227 227 229 231 230 232
232 238 243 250 255 262 260 269 289 302 303 311 310 305 292 286 286 286 287 288 288 282 276 265 254 251 249 240 237 239 238 235 233 232 235 233 227 226 228 229 230 228 229 230
253 225 241 252 262 266 255 267 285 293 297 301 304 300 294 288 282 280 280 281 282 279 275 268 261 260 258 249 242 242 234 227 233 236 238 235 228 229 230 230 234 233 235 238
236 237 247 258 263 268 274 285 291 289 287 287 293 297 296 291 287 283 280 279 278 275 272 269 266 261 258 250 242 237 229 225 231 236 238 234 231 227 230 235 239 232 237 236
Height
1526 1525 1527 1527 1527 1527 1528 1531 1533 1534 1535 1536 1536 1537 1538 1540 1541 1541 1542 1544 1545 1546 1548 1549 1550 1551 1552 1552 1553 1554 1555 1556 1556 1557 1558 1558 1558 1559 1559 1559 1559 1560 1560 1561
1524 1527 1527 1527 1528 1528 1529 1532 1534 1535 1535 1535 1535 1535 1535 1538 1539 1540 1541 1542 1544 1545 1547 1548 1549 1550 1551 1552 1553 1554 1555 1556 1556 1556 1557 1558 1558 1558 1559 1559 1559 1559 1560 1560
1524 1527 1528 1528 1529 1529 1530 1531 1532 1534 1535 1534 1535 1535 1533 1534 1537 1539 1540 1541 1542 1543 1545 1546 1548 1549 1550 1551 1552 1553 1554 1555 1555 1556 1556 1557 1557 1558 1558 1558 1559 1559 1559 1560
1525 1527 1528 1528 1529 1528 1531 1530 1531 1533 1534 1535 1535 1537 1529 1529 1533 1536 1538 1539 1540 1542 1543 1545 1546 1548 1549 1550 1551 1552 1553 1554 1555 1555 1555 1556 1557 1557 1558 1558 1558 1558 1559 1559
1526 1527 1527 1528 1528 1529 1529 1531 1531 1532 1532 1533 1532 1535 1528 1527 1530 1531 1534 1536 1538 1540 1542 1543 1545 1547 1548 1549 1550 1551 1552 1553 1554 1554 1555 1555 1556 1557 1557 1557 1557 1558 1558 1558
1525 1528 1528 1528 1529 1530 1531 1531 1531 1531 1531 1537 1531 1533 1530 1526 1527 1527 1531 1534 1536 1538 1540 1542 1543 1545 1546 1547 1548 1549 1550 1552 1552 1553 1554 1554 1555 1556 1556 1556 1557 1557 1557 1558
1526 1526 1528 1529 1529 1531 1529 1530 1536 1537 1537 1534 1528 1531 1529 1524 1525 1527 1529 1532 1534 1536 1538 1540 1541 1543 1544 1545 1546 1548 1549 1550 1551 1552 1553 1554 1554 1555 1555 1555 1556 1556 1557 1557
1527 1529 1527 1527 1526 1527 1526 1527 1536 1541 1538 1531 1528 1529 1524 1524 1527 1528 1529 1531 1533 1534 1536 1538 1540 1541 1542 1543 1545 1546 1547 1548 1550 1550 1551 1552 1553 1553 1554 1554 1555 1555 1556 1556
1524 1528 1526 1528 1527 1526 1526 1526 1526 1529 1530 1533 1526 1524 1522 1523 1525 1527 1529 1530 1531 1533 1535 1536 1538 1539 1541 1542 1543 1544 1546 1547 1548 1549 1550 1551 1551 1552 1552 1553 1553 1554 1554 1554
1521 1526 1526 1528 1528 1529 1526 1525 1528 1531 1537 1535 1529 1525 1523 1522 1524 1525 1527 1529 1530 1532 1534 1535 1536 1537 1538 1540 1541 1542 1544 1545 1546 1547 1548 1549 1550 1550 1550 1551 1552 1552 1552 1552
1522 1524 1526 1526 1527 1526 1528 1529 1528 1528 1530 1534 1534 1528 1519 1521 1522 1524 1526 1528 1529 1531 1532 1533 1535 1536 1537 1537 1539 1540 1542 1543 1544 1545 1546 1547 1548 1548 1549 1549 1550 1550 1550 1551
1523 1521 1523 1524 1526 1527 1525 1525 1527 1532 1530 1530 1531 1528 1519 1521 1523 1524 1525 1527 1528 1530 1531 1532 1533 1534 1535 1535 1536 1538 1540 1541 1542 1543 1544 1545 1545 1546 1547 1547 1548 1548 1548 1549
1525 1524 1527 1528 1530 1528 1526 1526 1526 1526 1527 1528 1531 1527 1520 1521 1522 1524 1525 1526 1527 1528 1529 1530 1531 1532 1533 1533 1534 1535 1537 1538 1540 1541 1542 1542 1543 1544 1544 1545 1545 1546 1546 1547
1525 1521 1525 1529 1524 1523 1524 1526 1526 1526 1527 1525 1523 1521 1518 1519 1520 1522 1524 1525 1526 1527 1527 1528 1529 1530 1531 1531 1532 1533 1534 1535 1537 1538 1539 1540 1540 1541 1542 1542 1543 1543 1544 1545
1524 1521 1520 1521 1522 1524 1524 1523 1524 1524 1522 1522 1519 1519 1517 1517 1520 1522 1523 1524 1525 1525 1526 1527 1527 1528 1529 1529 1530 1531 1532 1533 1534 1535 1536 1537 1538 1538 1539 1539 1540 1540 1541 1542
1523 1522 1522 1522 1522 1523 1524 1521 1521 1521 1520 1519 1518 1518 1515 1518 1519 1520 1521 1522 1523 1523 1524 1525 1525 1526 1526 1527 1528 1529 1529 1530 1531 1532 1533 1534 1535 1535 1536 1536 1537 1537 1538 1539
1522 1522 1523 1521 1520 1522 1521 1516 1516 1517 1516 1516 1516 1515 1515 1517 1518 1519 1520 1520 1521 1522 1522 1522 1523 1523 1524 1525 1525 1526 1527 1528 1529 1530 1530 1531 1532 1532 1533 1533 1534 1534 1535 1536
1521 1520 1520 1520 1522 1528 1515 1514 1515 1515 1515 1514 1514 1514 1516 1517 1518 1518 1519 1519 1519 1520 1520 1520 1521 1521 1521 1522 1523 1524 1524 1525 1526 1527 1528 1528 1529 1529 1530 1530 1531 1531 1532 1532
1522 1520 1521 1521 1521 1516 1514 1514 1515 1515 1513 1513 1513 1514 1516 1517 1516 1516 1517 1517 1518 1518 1518 1518 1518 1519 1519 1520 1520 1521 1522 1522 1523 1524 1524 1525 1525 1526 1526 1527 1527 1528 1528 1528
1523 1521 1519 1520 1523 1520 1512 1513 1515 1515 1512 1511 1512 1513 1514 1515 1512 1512 1515 1515 1515 1515 1515 1516 1516 1516 1516 1517 1517 1518 1518 1519 1519 1520 1521 1521 1522 1522 1522 1523 1524 1524 1524 1525
1520 1520 1520 1517 1517 1510 1511 1514 1515 1517 1511 1512 1512 1513 1513 1513 1513 1514 1513 1513 1513 1513 1512 1512 1513 1513 1513 1514 1514 1514 1514 1515 1516 1516 1517 1517 1518 1518 1518 1519 1520 1520 1520 1520
1514 1516 1516 1515 1517 1515 1513 1513 1513 1511 1511 1512 1512 1513 1513 1513 1512 1512 1512 1511 1511 1510 1510 1509 1509 1509 1510 1510 1510 1510 1510 1511 1512 1512 1512 1513 1513 1514 1514 1515 1515 1516 1516 1516
1513 1512 1510 1511 1512 1512 1514 1514 1514 1513 1512 1512 1511 1511 1511 1511 1510 1510 1509 1509 1508 1507 1507 1506 1506 1506 1506 1506 1506 1506 1506 1507 1507 1507 1507 1508 1509 1509 1509 1510 1510 1510 1511 1511
1511 1514 1513 1511 1509 1511 1513 1513 1512 1512 1512 1511 1510 1510 1509 1508 1507 1506 1506 1505 1505 1504 1504 1503 1502 1502 1501 1501 1501 1501 1502 1502 1502 1502 1503 1503 1504 1504 1504 1505 1505 1505 1505 1505
1510 1512 1510 1508 1509 1510 1510 1510 1510 1510 1509 1509 1508 1507 1506 1505 1504 1503 1502 1502 1501 1501 1500 1500 1499 1497 1497 1496 1496 1497 1497 1497 1498 1498 1498 1499 1499 1499 1499 1500 1500 1500 1500 1500
1510 1510 1508 1506 1507 1507 1507 1508 1507 1507 1506 1506 1505 1504 1503 1502 1501 1499 1498 1498 1497 1496 1496 1495 1494 1493 1493 1492 1492 1492 1492 1493 1493 1494 1494 1494 1494 1494 1495 1495 1495 1494 1495 1494